* Astronomy

Members Login
Username 
 
Password 
    Remember Me  
Post Info TOPIC: Asteroid 2006 HV57


L

Posts: 131433
Date:
Asteroid 2006 HV57
Permalink  
 


Orbital elements:
2006 HV57                                                Earth MOID = 0.1503 AU
Epoch 2012 Mar. 14.0 TT = JDT 2456000.5                 MPC
M  85.79471              (2000.0)            P               Q
n   0.21689679     Peri.   17.43044     +0.21167611     +0.97175969
a   2.7434726      Node   264.88632     -0.90870605     +0.15640528
e   0.5758323      Incl.    6.01025     -0.35978681     +0.17669323
P   4.54           H   18.5           G   0.15           U   1

MPEC 2012 - A34



__________________
Page 1 of 1  sorted by
 
Quick Reply

Please log in to post quick replies.



Create your own FREE Forum
Report Abuse
Powered by ActiveBoard